DF7PN-WX Weather Reports


time (UTC)temp
F
wind
direction
speed
knots
gust
knots
rain 1hr
in
rain 24hr
in
rain mn
in
humidity
%
barometer
mb
20260507112657 58 321 3.5 5.2 0.00 0.00 0.00 64 1015.9
20260507112157 59 321 3.5 5.2 0.00 0.00 0.00 65 1015.9
20260507111657 58 321 3.5 5.2 0.00 0.00 0.00 66 1015.9
20260507111157 57 321 3.5 5.2 0.00 0.00 0.00 69 1015.9
20260507110657 57 321 3.5 5.2 0.00 0.00 0.00 69 1016.0
20260507110157 57 321 3.5 5.2 0.00 0.00 0.00 70 1015.9
20260507105657 57 321 3.5 5.2 0.00 0.00 0.00 70 1015.9
20260507105157 57 321 3.5 5.2 0.00 0.00 0.00 70 1015.8
20260507104657 58 321 3.5 5.2 0.00 0.00 0.00 68 1015.8
20260507104157 57 321 3.5 5.2 0.00 0.00 0.00 67 1015.8
20260507103657 58 321 3.5 5.2 0.00 0.00 0.00 70 1015.9
20260507103157 57 321 3.5 5.2 0.00 0.00 0.00 71 1015.8
20260507102657 56 315 3.5 6.1 0.00 0.00 0.00 78 1015.9
20260507102156 55 309 0.0 0.9 0.00 0.00 0.00 79 1015.9
20260507101656 55 309 0.0 0.9 0.00 0.00 0.00 77 1015.9
20260507101156 55 309 0.9 1.7 0.00 0.00 0.00 79 1015.8
20260507100656 55 309 0.9 1.7 0.00 0.00 0.00 80 1015.8
20260507100156 55 309 0.9 1.7 0.00 0.00 0.00 79 1015.7
20260507095656 55 309 1.7 2.6 0.00 0.00 0.00 81 1015.6
20260507095156 54 309 1.7 2.6 0.00 0.00 0.00 81 1015.6
20260507094656 55 309 1.7 2.6 0.00 0.00 0.00 83 1015.5
20260507094156 55 309 2.6 4.3 0.00 0.00 0.00 80 1015.5
20260507093656 55 309 2.6 4.3 0.00 0.00 0.00 80 1015.5
20260507093156 55 309 2.6 4.3 0.00 0.00 0.00 81 1015.4
20260507092656 54 309 4.3 7.0 0.00 0.00 0.00 80 1015.4
20260507092156 54 309 4.3 7.0 0.00 0.00 0.00 79 1015.3
20260507091655 56 309 4.3 7.0 0.00 0.00 0.00 81 1015.3
20260507091155 55 309 1.7 2.6 0.00 0.00 0.00 84 1015.2
20260507090655 54 309 1.7 2.6 0.00 0.00 0.00 87 1015.2
20260507090155 53 309 2.6 4.3 0.00 0.00 0.00 87 1015.2
20260507085655 52 309 2.6 4.3 0.00 0.00 0.00 92 1015.2
20260507085155 51 309 2.6 4.3 0.00 0.00 0.00 93 1015.2
20260507084656 50 309 4.3 7.0 0.00 0.00 0.00 94 1015.1
20260507084155 51 303 0.0 0.9 0.00 0.00 0.00 94 1015.2
20260507083655 51 303 0.0 0.9 0.00 0.00 0.00 92 1015.2
20260507083155 51 303 0.0 0.9 0.00 0.00 0.00 91 1015.1
20260507082655 51 303 0.9 1.7 0.00 0.00 0.00 90 1015.0
20260507082155 51 303 0.9 1.7 0.00 0.00 0.00 91 1015.0
20260507081655 51 303 0.9 1.7 0.00 0.00 0.00 92 1015.0
20260507081155 52 303 1.7 3.5 0.00 0.00 0.00 91 1014.9
20260507080655 52 303 1.7 3.5 0.00 0.00 0.00 88 1014.9
20260507080154 52 303 1.7 3.5 0.00 0.00 0.00 92 1014.8
20260507075654 51 303 2.6 5.2 0.00 0.00 0.00 92 1014.8
20260507075154 51 303 2.6 5.2 0.00 0.00 0.00 93 1014.7
20260507074654 51 303 4.3 7.8 0.00 0.00 0.00 92 1014.7
20260507074154 51 303 4.3 7.8 0.00 0.00 0.00 92 1014.6
20260507073654 51 307 0.0 1.7 0.00 0.00 0.00 93 1014.5
20260507073154 50 307 0.9 2.6 0.00 0.00 0.00 96 1014.5
20260507072654 49 307 0.9 2.6 0.00 0.00 0.00 99 1014.5
20260507072154 49 307 0.9 2.6 0.00 0.00 0.00 99 1014.4
20260507071654 49 307 1.7 4.3 0.00 0.00 0.00 10 1014.4
20260507071154 49 307 2.6 6.1 0.00 0.00 0.00 10 1014.3
20260507070654 49 307 2.6 6.1 0.00 0.00 0.00 10 1014.2
20260507070154 49 307 2.6 6.1 0.00 0.00 0.00 10 1014.3
20260507065654 49 307 4.3 8.7 0.00 0.00 0.00 10 1014.3
20260507065153 49 307 4.3 8.7 0.00 0.00 0.00 10 1014.2
20260507064653 49 307 4.3 8.7 0.00 0.00 0.00 10 1014.2
20260507064153 49 299 0.0 0.9 0.00 0.00 0.00 10 1014.1
20260507063653 49 299 0.9 1.7 0.00 0.00 0.00 10 1014.1
20260507063153 49 299 0.9 1.7 0.00 0.00 0.00 10 1014.0
20260507062653 50 299 0.9 1.7 0.00 0.00 0.00 10 1013.9
20260507062153 49 299 1.7 2.6 0.00 0.00 0.00 10 1013.9
20260507061653 49 299 1.7 2.6 0.00 0.00 0.00 10 1013.8
20260507061153 49 299 1.7 2.6 0.00 0.00 0.00 10 1013.7
20260507060653 49 299 2.6 4.3 0.00 0.00 0.00 10 1013.7
20260507060153 48 299 4.3 7.0 0.00 0.00 0.00 10 1013.6
20260507055653 48 299 4.3 7.0 0.00 0.00 0.00 10 1013.6
20260507055153 48 299 4.3 7.0 0.00 0.00 0.00 10 1013.5
20260507054652 48 288 0.0 1.7 0.00 0.00 0.00 10 1013.4
20260507054152 48 288 0.0 1.7 0.00 0.00 0.00 10 1013.4
20260507053652 48 288 0.9 2.6 0.00 0.00 0.00 10 1013.4
20260507053152 48 288 1.7 4.3 0.00 0.00 0.00 10 1013.3
20260507052652 48 288 1.7 4.3 0.00 0.00 0.00 10 1013.3
20260507052152 48 288 1.7 4.3 0.00 0.00 0.00 10 1013.3
20260507051652 48 288 3.5 7.0 0.00 0.00 0.00 10 1013.2
20260507051152 48 288 0.0 1.7 0.00 0.00 0.00 10 1013.1
20260507050652 48 288 0.0 1.7 0.00 0.00 0.00 10 1013.0
20260507050152 48 288 0.9 2.6 0.00 0.00 0.00 10 1013.0
20260507045652 48 288 0.9 2.6 0.00 0.00 0.00 10 1013.0
20260507045151 48 288 1.7 4.3 0.00 0.00 0.00 10 1012.9
20260507044651 48 288 1.7 4.3 0.00 0.00 0.00 10 1012.9
20260507044151 48 288 3.5 7.0 0.00 0.00 0.00 10 1012.8
20260507043651 48 285 0.0 1.7 0.00 0.00 0.00 10 1012.7
20260507043151 48 285 0.9 2.6 0.00 0.00 0.00 10 1012.6
20260507042651 48 285 0.9 2.6 0.00 0.00 0.00 10 1012.6
20260507042151 48 285 1.7 4.3 0.00 0.00 0.00 10 1012.5
20260507041651 48 285 1.7 4.3 0.00 0.00 0.00 10 1012.4
20260507041151 48 285 1.7 4.3 0.00 0.00 0.00 10 1012.4
20260507040651 49 285 2.6 6.1 0.00 0.00 0.00 10 1012.4
20260507040151 49 292 0.0 1.7 0.00 0.00 0.00 10 1012.3
20260507035650 48 292 0.0 1.7 0.00 0.00 0.00 10 1012.2
20260507035150 48 292 0.9 2.6 0.00 0.00 0.00 10 1012.2
20260507034650 48 292 0.9 2.6 0.00 0.00 0.00 10 1012.2
20260507034150 48 292 0.9 2.6 0.00 0.00 0.00 10 1012.2
20260507033650 48 292 1.7 4.3 0.00 0.00 0.00 10 1012.1
20260507033150 48 292 1.7 4.3 0.00 0.00 0.00 10 1012.1
20260507032650 48 292 1.7 4.3 0.00 0.00 0.00 10 1012.1
20260507032150 48 292 2.6 6.1 0.00 0.00 0.00 10 1012.1
20260507031650 49 292 2.6 6.1 0.00 0.00 0.00 10 1012.1
20260507031150 48 292 2.6 6.1 0.00 0.00 0.00 10 1012.0
20260507030650 49 292 0.0 1.7 0.00 0.00 0.00 10 1012.0
20260507030150 49 292 0.0 1.7 0.00 0.00 0.00 10 1012.0
20260507025650 49 292 0.9 2.6 0.00 0.00 0.00 10 1011.8
20260507025150 49 292 1.7 4.3 0.00 0.00 0.00 10 1011.9
20260507024650 49 292 1.7 4.3 0.00 0.00 0.00 10 1011.9
20260507024149 49 292 1.7 4.3 0.00 0.00 0.00 10 1011.9
20260507023649 49 292 2.6 6.1 0.00 0.00 0.00 10 1011.8
20260507023149 49 292 2.6 6.1 0.00 0.00 0.00 10 1011.8
20260507022649 49 300 0.0 1.7 0.00 0.00 0.00 10 1011.8
20260507022149 49 300 0.0 1.7 0.00 0.00 0.00 10 1011.8
20260507021649 49 300 0.0 1.7 0.00 0.00 0.00 10 1011.7
20260507021149 49 300 0.9 2.6 0.00 0.00 0.00 10 1011.7
20260507020649 49 300 0.9 2.6 0.00 0.00 0.00 10 1011.7
20260507020149 49 300 0.9 2.6 0.00 0.00 0.00 10 1011.6
20260507015649 49 300 1.7 4.3 0.00 0.00 0.00 10 1011.6
20260507015149 49 300 2.6 6.1 0.00 0.00 0.00 10 1011.5
20260507014649 49 300 2.6 6.1 0.00 0.00 0.00 10 1011.5
20260507014149 49 300 2.6 6.1 0.00 0.00 0.00 10 1011.5
20260507013649 49 315 0.0 0.9 0.00 0.00 0.00 10 1011.5
20260507013148 49 315 0.0 0.9 0.00 0.00 0.00 10 1011.4
20260507012648 49 315 0.9 1.7 0.00 0.00 0.00 10 1011.4
20260507012148 48 315 0.9 1.7 0.00 0.00 0.00 10 1011.4
20260507011648 48 315 1.7 3.5 0.00 0.00 0.00 10 1011.4
20260507011148 48 315 1.7 3.5 0.00 0.00 0.00 10 1011.3
20260507010648 49 315 1.7 3.5 0.00 0.00 0.00 10 1011.3
20260507010148 49 315 2.6 5.2 0.00 0.00 0.00 10 1011.2
20260507005648 49 315 2.6 5.2 0.00 0.00 0.00 10 1011.3
20260507005148 49 315 2.6 5.2 0.00 0.00 0.00 10 1011.2
20260507004648 49 312 0.0 0.9 0.00 0.00 0.00 10 1011.2
20260507004148 49 312 0.0 0.9 0.00 0.00 0.00 10 1011.2
20260507003648 48 312 0.0 0.9 0.00 0.00 0.00 10 1011.2
20260507003147 48 312 0.9 1.7 0.00 0.00 0.00 10 1011.2
20260507002647 48 312 0.9 1.7 0.00 0.00 0.00 10 1011.2
20260507002147 49 312 1.7 3.5 0.00 0.00 0.00 10 1011.2
20260507001647 49 312 2.6 5.2 0.00 0.00 0.00 10 1011.2
20260507001147 48 312 2.6 5.2 0.00 0.00 0.00 10 1011.2
20260507000647 49 312 2.6 5.2 0.00 0.00 0.00 10 1011.1
20260507000147 49 307 0.0 1.7 0.00 0.00 0.00 10 1011.1
20260506235647 49 307 0.0 1.7 0.00 0.00 0.00 10 1011.1
20260506235147 48 307 0.0 1.7 0.00 0.00 0.00 10 1011.1
20260506234647 49 307 0.9 2.6 0.00 0.00 0.00 10 1011.1
20260506234147 49 307 0.9 2.6 0.00 0.00 0.00 10 1011.1
20260506233647 49 307 0.9 2.6 0.00 0.00 0.00 10 1011.0
20260506233147 49 307 1.7 4.3 0.00 0.00 0.00 10 1011.0
20260506232647 49 307 2.6 6.1 0.00 0.00 0.00 10 1011.0
20260506232147 49 307 2.6 6.1 0.00 0.00 0.00 10 1011.0
20260506231647 49 307 2.6 6.1 0.00 0.00 0.00 10 1011.0
20260506231147 49 307 0.0 1.7 0.00 0.00 0.00 10 1011.0
20260506230646 49 307 0.0 1.7 0.00 0.00 0.00 10 1011.0
20260506230146 49 307 0.9 2.6 0.00 0.00 0.00 10 1010.9
20260506225646 49 307 0.9 2.6 0.00 0.00 0.00 10 1010.8
20260506225146 49 307 1.7 4.3 0.00 0.00 0.00 10 1010.8
20260506224646 49 307 2.6 6.1 0.00 0.00 0.00 10 1010.8
20260506224146 49 307 2.6 6.1 0.00 0.00 0.00 10 1010.7
20260506223646 49 307 2.6 6.1 0.00 0.00 0.00 10 1010.8
20260506223146 49 307 0.0 1.7 0.00 0.00 0.00 10 1010.7
20260506222646 49 307 0.0 1.7 0.00 0.00 0.00 10 1010.7
20260506222146 49 307 0.0 1.7 0.00 0.00 0.00 10 1010.7
20260506221646 49 307 0.9 3.5 0.00 0.00 0.00 10 1010.6
20260506221146 49 307 0.9 3.5 0.00 0.00 0.00 10 1010.6
20260506220646 49 307 0.9 3.5 0.00 0.00 0.00 10 1010.5
20260506220146 49 307 1.7 5.2 0.00 0.00 0.00 10 1010.5
20260506215646 49 307 1.7 5.2 0.00 0.00 0.00 10 1010.5
20260506215145 49 307 1.7 5.2 0.00 0.00 0.00 10 1010.6
20260506214645 49 307 3.5 7.8 0.00 0.00 0.00 10 1010.5
20260506214145 49 307 3.5 7.8 0.00 0.00 0.00 10 1010.4
20260506213645 49 307 3.5 7.8 0.00 0.00 0.00 10 1010.4
20260506213145 49 296 0.0 1.7 0.00 0.00 0.00 10 1010.4
20260506212645 49 296 0.0 1.7 0.00 0.00 0.00 10 1010.3
20260506212145 49 296 0.0 1.7 0.00 0.00 0.00 10 1010.3
20260506211645 49 296 0.9 2.6 0.00 0.00 0.00 10 1010.3
20260506211145 49 296 0.9 2.6 0.00 0.00 0.00 10 1010.2
20260506210645 49 296 0.9 2.6 0.00 0.00 0.00 10 1010.2
20260506210144 49 296 1.7 4.3 0.00 0.00 0.00 10 1010.2
20260506205644 49 296 1.7 4.3 0.00 0.00 0.00 10 1010.3
20260506205144 49 296 2.6 7.0 0.00 0.00 0.00 10 1010.2
20260506204644 49 296 2.6 7.0 0.00 0.00 0.00 10 1010.3
20260506204144 50 296 2.6 7.0 0.00 0.00 0.00 10 1010.2
20260506203644 50 305 0.0 1.7 0.00 0.00 0.00 10 1010.1
20260506203144 50 305 0.0 1.7 0.00 0.00 0.00 10 1010.1
20260506202644 50 305 0.9 2.6 0.00 0.00 0.00 10 1010.1
20260506202144 50 305 1.7 4.3 0.00 0.00 0.00 10 1010.0
20260506201644 50 305 1.7 4.3 0.00 0.00 0.00 10 1010.0
20260506201143 50 305 1.7 4.3 0.00 0.00 0.00 10 1009.9
20260506200643 50 305 2.6 7.0 0.00 0.00 0.00 10 1009.8
20260506200143 50 305 2.6 7.0 0.00 0.00 0.00 10 1009.8
20260506195643 50 305 2.6 7.0 0.00 0.00 0.00 10 1009.7
20260506195143 50 309 0.0 1.7 0.00 0.00 0.00 10 1009.6
20260506194643 50 309 0.0 1.7 0.00 0.00 0.00 10 1009.6
20260506194143 50 309 0.9 2.6 0.00 0.00 0.00 10 1009.6
20260506193643 50 309 0.9 2.6 0.00 0.00 0.00 10 1009.5
20260506193143 50 309 0.9 2.6 0.00 0.00 0.00 10 1009.5
20260506192643 50 309 1.7 4.3 0.00 0.00 0.00 10 1009.4
20260506192143 51 309 1.7 4.3 0.00 0.00 0.00 10 1009.4
20260506191643 51 309 1.7 4.3 0.00 0.00 0.00 10 1009.3
20260506191143 51 309 2.6 6.1 0.00 0.00 0.00 10 1009.2
20260506190643 51 309 2.6 6.1 0.00 0.00 0.00 10 1009.1
20260506190143 51 309 2.6 6.1 0.00 0.00 0.00 10 1008.9
20260506185642 51 309 4.3 9.6 0.00 0.00 0.00 10 1008.8
20260506185142 52 309 4.3 9.6 0.00 0.00 0.00 10 1008.7
20260506184642 51 306 0.0 1.7 0.00 0.00 0.00 10 1008.6
20260506184142 51 306 0.0 1.7 0.00 0.00 0.00 10 1008.5
20260506183642 52 306 0.0 1.7 0.00 0.00 0.00 10 1008.4
20260506183142 52 306 0.9 3.5 0.00 0.00 0.00 10 1008.3
20260506182642 52 306 0.9 3.5 0.00 0.00 0.00 10 1008.4
20260506182142 52 306 0.9 3.5 0.00 0.00 0.00 10 1008.2
20260506181642 52 306 1.7 5.2 0.00 0.00 0.00 10 1008.2
20260506181142 53 306 3.5 7.8 0.00 0.00 0.00 10 1008.1
20260506180642 53 306 3.5 7.8 0.00 0.00 0.00 10 1008.2
20260506180142 53 306 3.5 7.8 0.00 0.00 0.00 10 1008.2
20260506175642 53 306 0.0 1.7 0.00 0.00 0.00 10 1008.1
20260506175141 53 306 0.9 3.5 0.00 0.00 0.00 10 1008.0
20260506174641 53 306 1.7 5.2 0.00 0.00 0.00 10 1007.9
20260506174141 54 306 1.7 5.2 0.00 0.00 0.00 10 1007.9
20260506173641 54 306 3.5 7.8 0.00 0.00 0.00 10 1007.9
20260506173141 54 318 0.0 1.7 0.00 0.00 0.00 10 1007.9
20260506172641 54 318 0.0 1.7 0.00 0.00 0.00 10 1007.8
20260506172141 54 318 0.9 2.6 0.00 0.00 0.00 10 1007.7
20260506171641 54 318 0.9 2.6 0.00 0.00 0.00 10 1007.8
20260506171141 54 318 1.7 4.3 0.00 0.00 0.00 10 1007.9
20260506170641 54 318 1.7 4.3 0.00 0.00 0.00 10 1007.7
20260506170141 54 318 1.7 4.3 0.00 0.00 0.00 10 1007.7
20260506165641 55 318 3.5 6.1 0.00 0.00 0.00 10 1007.7
20260506165141 55 318 3.5 6.1 0.00 0.00 0.00 10 1007.7
20260506164641 55 323 0.0 0.9 0.00 0.00 0.00 10 1007.7
20260506164141 55 323 0.0 0.9 0.00 0.00 0.00 10 1007.7
20260506163641 55 323 0.0 0.9 0.00 0.00 0.00 10 1007.6
20260506163140 55 323 0.9 1.7 0.00 0.00 0.00 10 1007.6
20260506162640 55 323 1.7 2.6 0.00 0.00 0.00 10 1007.5
20260506162140 55 323 1.7 2.6 0.00 0.00 0.00 10 1007.5
20260506161640 55 323 2.6 4.3 0.00 0.00 0.00 10 1007.6
20260506161140 55 323 2.6 4.3 0.00 0.00 0.00 10 1007.5
20260506160640 55 323 2.6 4.3 0.00 0.00 0.00 10 1007.6
20260506160140 55 323 4.3 6.1 0.00 0.00 0.00 10 1007.6
20260506155640 55 323 4.3 6.1 0.00 0.00 0.00 10 1007.5
20260506155140 55 323 4.3 6.1 0.00 0.00 0.00 10 1007.4
20260506154640 55 316 0.0 0.9 0.00 0.00 0.00 10 1007.4
20260506154140 55 316 0.0 0.9 0.00 0.00 0.00 10 1007.3
20260506153640 55 316 0.9 1.7 0.00 0.00 0.00 10 1007.3
20260506153140 55 316 0.9 1.7 0.00 0.00 0.00 10 1007.3
20260506152640 56 316 1.7 2.6 0.00 0.00 0.00 10 1007.2
20260506152140 57 316 1.7 2.6 0.00 0.00 0.00 10 1007.2
20260506151639 58 316 3.5 4.3 0.00 0.00 0.00 10 1007.1
20260506151139 58 316 5.2 6.1 0.00 0.00 0.00 10 1007.0
20260506150639 59 316 5.2 6.1 0.00 0.00 0.00 10 1006.9
20260506150139 60 309 0.0 0.9 0.00 0.00 0.00 97 1006.8
20260506145639 60 309 0.0 0.9 0.00 0.00 0.00 97 1006.8
20260506145139 60 309 0.0 0.9 0.00 0.00 0.00 99 1006.8
20260506144639 59 309 0.9 1.7 0.00 0.00 0.00 10 1006.9
20260506144139 59 309 1.7 2.6 0.00 0.00 0.00 10 1006.8
20260506143639 60 309 1.7 2.6 0.00 0.00 0.00 99 1006.8
20260506143139 60 309 1.7 2.6 0.00 0.00 0.00 96 1006.8
20260506142639 60 309 3.5 4.3 0.00 0.00 0.00 93 1006.9
20260506142138 60 309 3.5 4.3 0.00 0.00 0.00 88 1006.8
20260506141638 61 309 5.2 7.0 0.00 0.00 0.00 87 1006.9
20260506141138 61 309 5.2 7.0 0.00 0.00 0.00 85 1006.8
20260506140638 62 309 5.2 7.0 0.00 0.00 0.00 80 1006.7
20260506140138 62 309 5.2 7.0 0.00 0.00 0.00 77 1006.7
20260506135638 63 309 5.2 7.0 0.00 0.00 0.00 70 1006.7
20260506135138 63 309 5.2 7.0 0.00 0.00 0.00 70 1006.6
20260506134638 63 309 5.2 7.0 0.00 0.00 0.00 69 1006.6
20260506134138 64 309 5.2 7.0 0.00 0.00 0.00 74 1006.5
20260506133638 65 309 5.2 7.0 0.00 0.00 0.00 68 1006.5
20260506133138 67 303 5.2 7.0 0.00 0.00 0.00 64 1006.5
20260506132638 67 303 5.2 7.0 0.00 0.00 0.00 62 1006.4
20260506132138 68 303 5.2 7.0 0.00 0.00 0.00 58 1006.4
20260506131638 68 303 5.2 7.0 0.00 0.00 0.00 59 1006.4
20260506131137 67 303 5.2 7.0 0.00 0.00 0.00 59 1006.4
20260506130637 67 303 5.2 7.0 0.00 0.00 0.00 59 1006.3
20260506130137 67 303 5.2 7.0 0.00 0.00 0.00 63 1006.3
20260506125637 66 255 7.0 8.7 0.00 0.00 0.00 64 1006.3
20260506125137 66 255 7.0 8.7 0.00 0.00 0.00 64 1006.4
20260506124637 64 255 7.0 8.7 0.00 0.00 0.00 66 1006.4
20260506124137 64 255 7.0 8.7 0.00 0.00 0.00 66 1006.4
20260506123637 64 255 7.0 8.7 0.00 0.00 0.00 69 1006.4
20260506123137 64 245 7.0 7.8 0.00 0.00 0.00 68 1006.5
20260506122637 65 245 7.0 7.8 0.00 0.00 0.00 63 1006.4
20260506122137 67 245 7.0 7.8 0.00 0.00 0.00 61 1006.5
20260506121637 67 245 7.0 7.8 0.00 0.00 0.00 62 1006.5
20260506121137 67 245 7.0 7.8 0.00 0.00 0.00 62 1006.5
20260506120637 66 245 7.0 7.8 0.00 0.00 0.00 63 1006.5
20260506120137 66 245 4.3 5.2 0.00 0.00 0.00 64 1006.5
20260506115637 66 245 4.3 5.2 0.00 0.00 0.00 65 1006.5
20260506115137 65 245 4.3 5.2 0.00 0.00 0.00 66 1006.5
20260506114636 64 245 7.0 7.8 0.00 0.00 0.00 67 1006.4
20260506114142 65 245 7.0 7.8 0.00 0.00 0.00 66 1006.5
20260506113636 65 236 0.9 0.9 0.00 0.00 0.00 67 1006.5
20260506113136 65 236 0.9 0.9 0.00 0.00 0.00 66 1006.5